Time,TemperatureF,DewpointF,PressureIn,WindDirection,WindDirectionDegrees,WindSpeedMPH,WindSpeedGustMPH,Humidity,HourlyPrecipIn,Conditions,Clouds,dailyrainin,SoftwareType,DateUTC
2013-04-30 00:09:00,60.1,53.6,27.60,SW,235,13.0,21.0,79,0.00,CLR,CLR,0.00,WeatherDisplay:10.37,2013-04-30 05:09:00,
2013-04-30 00:19:00,60.4,53.9,27.59,SW,236,12.0,20.0,79,0.00,CLR,CLR,0.00,WeatherDisplay:10.37,2013-04-30 05:19:00,
2013-04-30 00:29:00,60.9,54.3,27.59,SW,236,10.0,22.0,79,0.00,CLR,CLR,0.00,WeatherDisplay:10.37,2013-04-30 05:29:00,
2013-04-30 00:39:00,61.1,54.6,27.58,WSW,237,13.0,20.0,79,0.00,CLR,CLR,0.00,WeatherDisplay:10.37,2013-04-30 05:39:00,
2013-04-30 00:49:00,61.1,54.9,27.58,SW,236,9.0,16.0,80,0.00,CLR,CLR,0.00,WeatherDisplay:10.37,2013-04-30 05:49:00,
2013-04-30 00:58:00,61.0,54.8,27.57,SW,234,9.0,16.0,80,0.00,CLR,CLR,0.00,WeatherDisplay:10.37,2013-04-30 05:58:00,
2013-04-30 01:09:00,61.0,54.8,27.57,SW,235,12.0,17.0,80,0.00,CLR,CLR,0.00,WeatherDisplay:10.37,2013-04-30 06:09:00,
2013-04-30 01:19:00,61.0,54.8,27.56,SW,234,9.0,20.0,80,0.00,CLR,CLR,0.00,WeatherDisplay:10.37,2013-04-30 06:19:00,
2013-04-30 01:29:00,60.8,54.6,27.56,SW,234,8.0,17.0,80,0.00,CLR,CLR,0.00,WeatherDisplay:10.37,2013-04-30 06:29:00,
2013-04-30 01:39:00,60.2,54.3,27.56,SW,235,7.0,14.0,81,0.00,CLR,CLR,0.00,WeatherDisplay:10.37,2013-04-30 06:39:00,
2013-04-30 01:49:00,59.9,54.4,27.56,SW,236,7.0,13.0,82,0.00,CLR,CLR,0.00,WeatherDisplay:10.37,2013-04-30 06:49:00,
2013-04-30 01:58:00,59.8,54.3,27.56,WSW,237,8.0,13.0,82,0.00,CLR,CLR,0.00,WeatherDisplay:10.37,2013-04-30 06:58:00,
2013-04-30 02:09:00,59.7,53.9,27.55,SW,236,7.0,16.0,81,0.00,CLR,CLR,0.00,WeatherDisplay:10.37,2013-04-30 07:09:00,
2013-04-30 02:19:00,59.5,53.7,27.55,SW,235,7.0,13.0,81,0.00,CLR,CLR,0.00,WeatherDisplay:10.37,2013-04-30 07:19:00,
2013-04-30 02:29:00,59.2,53.4,27.54,SW,236,8.0,12.0,81,0.00,CLR,CLR,0.00,WeatherDisplay:10.37,2013-04-30 07:29:00,
2013-04-30 02:39:00,58.8,52.7,27.54,SW,235,8.0,15.0,80,0.00,CLR,CLR,0.00,WeatherDisplay:10.37,2013-04-30 07:39:00,
2013-04-30 02:49:00,58.6,52.4,27.53,SW,234,8.0,12.0,80,0.00,CLR,CLR,0.00,WeatherDisplay:10.37,2013-04-30 07:49:00,
2013-04-30 02:58:00,58.3,52.5,27.53,SW,234,6.0,13.0,81,0.00,CLR,CLR,0.00,WeatherDisplay:10.37,2013-04-30 07:58:00,
2013-04-30 03:09:00,57.8,52.0,27.53,SW,236,3.0,12.0,81,0.00,CLR,CLR,0.00,WeatherDisplay:10.37,2013-04-30 08:09:00,
2013-04-30 03:19:00,57.9,51.8,27.53,WSW,238,9.0,13.0,80,0.00,CLR,CLR,0.00,WeatherDisplay:10.37,2013-04-30 08:19:00,
2013-04-30 03:29:00,59.5,51.9,27.52,WSW,239,9.0,15.0,76,0.00,CLR,CLR,0.00,WeatherDisplay:10.37,2013-04-30 08:29:00,
2013-04-30 03:39:00,60.0,52.1,27.52,WSW,240,9.0,15.0,75,0.00,CLR,CLR,0.00,WeatherDisplay:10.37,2013-04-30 08:39:00,
2013-04-30 03:49:00,60.5,52.1,27.52,WSW,241,12.0,15.0,74,0.00,CLR,CLR,0.00,WeatherDisplay:10.37,2013-04-30 08:49:00,
2013-04-30 03:58:00,61.0,52.3,27.52,WSW,241,9.0,20.0,73,0.00,CLR,CLR,0.00,WeatherDisplay:10.37,2013-04-30 08:58:00,
2013-04-30 04:09:00,61.2,52.1,27.52,WSW,239,10.0,20.0,72,0.00,CLR,CLR,0.00,WeatherDisplay:10.37,2013-04-30 09:09:00,
2013-04-30 04:19:00,61.2,52.1,27.53,WSW,241,13.0,20.0,72,0.00,CLR,CLR,0.00,WeatherDisplay:10.37,2013-04-30 09:19:00,
2013-04-30 04:29:00,60.6,51.9,27.53,WSW,243,9.0,16.0,73,0.00,CLR,CLR,0.00,WeatherDisplay:10.37,2013-04-30 09:29:00,
2013-04-30 04:39:00,60.1,51.8,27.54,WSW,245,8.0,20.0,74,0.00,CLR,CLR,0.00,WeatherDisplay:10.37,2013-04-30 09:39:00,
2013-04-30 04:49:00,59.3,51.4,27.54,WSW,247,8.0,18.0,75,0.00,CLR,CLR,0.00,WeatherDisplay:10.37,2013-04-30 09:49:00,
2013-04-30 04:58:00,59.4,52.2,27.55,WSW,250,12.0,20.0,77,0.00,CLR,CLR,0.00,WeatherDisplay:10.37,2013-04-30 09:58:00,
2013-04-30 05:09:00,59.4,52.6,27.55,WSW,252,16.0,23.0,78,0.00,CLR,CLR,0.00,WeatherDisplay:10.37,2013-04-30 10:09:00,
2013-04-30 05:19:00,59.9,52.7,27.55,WSW,252,15.0,22.0,77,0.00,CLR,CLR,0.00,WeatherDisplay:10.37,2013-04-30 10:19:00,
2013-04-30 05:29:00,59.8,52.2,27.56,WSW,254,15.0,24.0,76,0.00,CLR,CLR,0.00,WeatherDisplay:10.37,2013-04-30 10:29:00,
2013-04-30 05:39:00,59.4,51.5,27.57,WSW,256,16.0,23.0,75,0.00,CLR,CLR,0.00,WeatherDisplay:10.37,2013-04-30 10:39:00,
2013-04-30 05:49:00,58.9,50.7,27.58,WSW,258,13.0,23.0,74,0.00,CLR,CLR,0.00,WeatherDisplay:10.37,2013-04-30 10:49:00,
2013-04-30 05:58:00,58.2,48.8,27.59,West,265,13.0,22.0,71,0.00,CLR,CLR,0.00,WeatherDisplay:10.37,2013-04-30 10:58:00,
2013-04-30 06:08:00,56.5,48.0,27.61,West,267,10.0,24.0,73,0.00,CLR,CLR,0.00,WeatherDisplay:10.37,2013-04-30 11:08:00,
2013-04-30 06:18:00,53.8,47.4,27.62,West,272,9.0,21.0,79,0.00,CLR,CLR,0.00,WeatherDisplay:10.37,2013-04-30 11:18:00,
2013-04-30 06:28:00,51.9,46.9,27.64,West,274,12.0,22.0,83,0.00,CLR,CLR,0.00,WeatherDisplay:10.37,2013-04-30 11:28:00,
2013-04-30 06:38:00,50.9,46.5,27.65,West,276,9.0,24.0,85,0.00,CLR,CLR,0.00,WeatherDisplay:10.37,2013-04-30 11:38:00,
2013-04-30 06:48:00,50.4,46.1,27.65,West,279,12.0,21.0,85,0.00,CLR,CLR,0.00,WeatherDisplay:10.37,2013-04-30 11:48:00,
2013-04-30 06:58:00,50.1,46.0,27.67,West,276,14.0,24.0,86,0.00,CLR,CLR,0.00,WeatherDisplay:10.37,2013-04-30 11:58:00,
2013-04-30 07:08:00,49.9,46.2,27.68,West,278,14.0,27.0,87,0.00,CLR,CLR,0.00,WeatherDisplay:10.37,2013-04-30 12:08:00,
2013-04-30 07:18:00,49.8,46.4,27.69,West,277,13.0,20.0,88,0.00,CLR,CLR,0.00,WeatherDisplay:10.37,2013-04-30 12:18:00,
2013-04-30 07:28:00,49.7,46.2,27.69,West,276,10.0,21.0,88,0.00,CLR,CLR,0.00,WeatherDisplay:10.37,2013-04-30 12:28:00,
2013-04-30 07:38:00,49.7,46.3,27.71,West,276,12.0,23.0,88,0.00,CLR,CLR,0.00,WeatherDisplay:10.37,2013-04-30 12:38:00,
2013-04-30 07:48:00,49.8,46.4,27.72,West,277,10.0,24.0,88,0.00,CLR,CLR,0.00,WeatherDisplay:10.37,2013-04-30 12:48:00,
2013-04-30 07:58:00,49.9,46.5,27.72,West,277,9.0,22.0,88,0.00,CLR,CLR,0.00,WeatherDisplay:10.37,2013-04-30 12:58:00,
2013-04-30 08:08:00,50.0,46.6,27.73,West,277,12.0,20.0,88,0.00,CLR,CLR,0.00,WeatherDisplay:10.37,2013-04-30 13:08:00,
2013-04-30 08:19:00,50.6,46.9,27.74,West,277,10.0,21.0,87,0.00,CLR,CLR,0.00,WeatherDisplay:10.37,2013-04-30 13:19:00,
2013-04-30 08:29:00,51.3,46.9,27.75,West,279,8.0,26.0,85,0.00,CLR,CLR,0.00,WeatherDisplay:10.37,2013-04-30 13:29:00,
2013-04-30 08:39:00,51.5,46.5,27.75,West,280,13.0,26.0,83,0.00,CLR,CLR,0.00,WeatherDisplay:10.37,2013-04-30 13:39:00,
2013-04-30 08:49:00,51.3,46.3,27.76,West,279,14.0,26.0,83,0.00,CLR,CLR,0.00,WeatherDisplay:10.37,2013-04-30 13:49:00,
2013-04-30 08:58:00,51.5,46.2,27.76,West,278,14.0,25.0,82,0.00,CLR,CLR,0.00,WeatherDisplay:10.37,2013-04-30 13:58:00,
2013-04-30 09:08:00,51.7,46.0,27.77,West,279,13.0,23.0,81,0.00,CLR,CLR,0.00,WeatherDisplay:10.37,2013-04-30 14:08:00,
2013-04-30 09:19:00,52.5,46.2,27.78,West,279,15.0,27.0,79,0.00,CLR,CLR,0.00,WeatherDisplay:10.37,2013-04-30 14:19:00,
2013-04-30 09:28:00,53.1,45.7,27.79,West,280,13.0,22.0,76,0.00,CLR,CLR,0.00,WeatherDisplay:10.37,2013-04-30 14:28:00,
2013-04-30 09:38:00,54.1,46.0,27.80,West,279,12.0,20.0,74,0.00,CLR,CLR,0.00,WeatherDisplay:10.37,2013-04-30 14:38:00,
2013-04-30 09:48:00,54.8,45.6,27.81,West,279,12.0,17.0,71,0.00,CLR,CLR,0.00,WeatherDisplay:10.37,2013-04-30 14:48:00,
2013-04-30 09:58:00,55.3,45.6,27.81,West,280,8.0,18.0,70,0.00,CLR,CLR,0.00,WeatherDisplay:10.37,2013-04-30 14:58:00,
2013-04-30 10:08:00,54.6,45.4,27.81,West,276,9.0,17.0,71,0.00,CLR,CLR,0.00,WeatherDisplay:10.37,2013-04-30 15:08:00,
2013-04-30 10:18:00,54.4,46.3,27.81,West,275,10.0,18.0,74,0.00,CLR,CLR,0.00,WeatherDisplay:10.37,2013-04-30 15:18:00,
2013-04-30 10:28:00,55.2,46.4,27.82,West,273,12.0,22.0,72,0.00,CLR,CLR,0.00,WeatherDisplay:10.37,2013-04-30 15:28:00,
2013-04-30 10:38:00,54.9,46.4,27.83,West,272,10.0,24.0,73,0.00,CLR,CLR,0.00,WeatherDisplay:10.37,2013-04-30 15:38:00,
2013-04-30 10:48:00,55.0,46.5,27.83,West,272,8.0,20.0,73,0.00,CLR,CLR,0.00,WeatherDisplay:10.37,2013-04-30 15:48:00,
2013-04-30 10:58:00,55.6,46.4,27.84,West,273,6.0,22.0,71,0.00,CLR,CLR,0.00,WeatherDisplay:10.37,2013-04-30 15:58:00,
2013-04-30 11:09:00,56.7,45.5,27.85,West,271,8.0,18.0,66,0.00,CLR,CLR,0.00,WeatherDisplay:10.37,2013-04-30 16:09:00,
2013-04-30 11:19:00,56.5,44.0,27.82,West,277,6.0,20.0,63,0.00,CLR,CLR,0.00,WeatherDisplay:10.37,2013-04-30 16:19:00,
2013-04-30 11:28:00,57.4,42.3,27.85,West,275,9.0,20.0,57,0.00,CLR,CLR,0.00,WeatherDisplay:10.37,2013-04-30 16:28:00,
2013-04-30 11:38:00,57.9,40.9,27.85,West,273,10.0,23.0,53,0.00,CLR,CLR,0.00,WeatherDisplay:10.37,2013-04-30 16:38:00,
2013-04-30 11:48:00,58.5,43.3,27.86,West,266,7.0,16.0,57,0.00,CLR,CLR,0.00,WeatherDisplay:10.37,2013-04-30 16:48:00,
2013-04-30 11:58:00,58.6,41.5,27.86,West,263,8.0,18.0,53,0.00,CLR,CLR,0.00,WeatherDisplay:10.37,2013-04-30 16:58:00,
2013-04-30 12:08:00,58.2,40.7,27.86,West,265,7.0,16.0,52,0.00,CLR,CLR,0.00,WeatherDisplay:10.37,2013-04-30 17:08:00,
2013-04-30 12:18:00,58.6,39.0,27.87,West,268,8.0,22.0,48,0.00,CLR,CLR,0.00,WeatherDisplay:10.37,2013-04-30 17:18:00,
2013-04-30 12:28:00,59.2,38.9,27.88,West,277,7.0,21.0,47,0.00,CLR,CLR,0.00,WeatherDisplay:10.37,2013-04-30 17:28:00,
2013-04-30 12:38:00,59.3,36.8,27.86,WNW,286,9.0,20.0,43,0.00,CLR,CLR,0.00,WeatherDisplay:10.37,2013-04-30 17:38:00,
2013-04-30 12:48:00,59.4,35.1,27.88,WNW,286,10.0,21.0,40,0.00,CLR,CLR,0.00,WeatherDisplay:10.37,2013-04-30 17:48:00,
2013-04-30 12:58:00,59.2,35.5,27.86,WNW,296,10.0,20.0,41,0.00,CLR,CLR,0.00,WeatherDisplay:10.37,2013-04-30 17:58:00,
2013-04-30 13:08:00,59.5,35.1,27.88,WNW,285,8.0,20.0,40,0.00,CLR,CLR,0.00,WeatherDisplay:10.37,2013-04-30 18:08:00,
2013-04-30 13:18:00,59.4,32.4,27.88,WNW,287,10.0,26.0,36,0.00,CLR,CLR,0.00,WeatherDisplay:10.37,2013-04-30 18:18:00,
2013-04-30 13:28:00,59.4,33.8,27.88,WNW,294,7.0,22.0,38,0.00,CLR,CLR,0.00,WeatherDisplay:10.37,2013-04-30 18:28:00,
2013-04-30 13:38:00,60.2,34.5,27.88,WNW,294,6.0,15.0,38,0.00,CLR,CLR,0.00,WeatherDisplay:10.37,2013-04-30 18:38:00,
2013-04-30 13:48:00,60.6,34.8,27.90,WNW,295,9.0,20.0,38,0.00,CLR,CLR,0.00,WeatherDisplay:10.37,2013-04-30 18:48:00,
2013-04-30 13:58:00,61.4,32.8,27.90,WNW,292,7.0,23.0,34,0.00,CLR,CLR,0.00,WeatherDisplay:10.37,2013-04-30 18:58:00,
2013-04-30 14:08:00,61.4,32.7,27.89,WNW,296,10.0,20.0,34,0.00,CLR,CLR,0.00,WeatherDisplay:10.37,2013-04-30 19:08:00,
2013-04-30 14:18:00,61.2,34.0,27.90,WNW,295,8.0,17.0,36,0.00,CLR,CLR,0.00,WeatherDisplay:10.37,2013-04-30 19:18:00,
2013-04-30 14:28:00,61.3,32.7,27.90,WNW,293,8.0,18.0,34,0.00,CLR,CLR,0.00,WeatherDisplay:10.37,2013-04-30 19:28:00,
2013-04-30 14:38:00,61.1,33.3,27.90,WNW,300,9.0,16.0,35,0.00,CLR,CLR,0.00,WeatherDisplay:10.37,2013-04-30 19:38:00,
2013-04-30 14:48:00,60.8,32.2,27.89,WNW,302,10.0,21.0,34,0.00,CLR,CLR,0.00,WeatherDisplay:10.37,2013-04-30 19:48:00,
2013-04-30 14:58:00,61.4,34.9,27.91,WNW,298,9.0,17.0,37,0.00,CLR,CLR,0.00,WeatherDisplay:10.37,2013-04-30 19:58:00,
2013-04-30 15:08:00,62.3,34.3,27.92,WNW,296,8.0,18.0,35,0.00,CLR,CLR,0.00,WeatherDisplay:10.37,2013-04-30 20:08:00,
2013-04-30 15:18:00,61.8,33.1,27.93,WNW,291,9.0,22.0,34,0.00,CLR,CLR,0.00,WeatherDisplay:10.37,2013-04-30 20:18:00,
2013-04-30 15:28:00,61.2,33.3,27.93,WNW,283,10.0,20.0,35,0.00,CLR,CLR,0.00,WeatherDisplay:10.37,2013-04-30 20:28:00,
2013-04-30 15:38:00,60.4,34.0,27.94,West,273,7.0,20.0,37,0.00,CLR,CLR,0.00,WeatherDisplay:10.37,2013-04-30 20:38:00,
2013-04-30 15:48:00,60.0,33.6,27.94,West,268,8.0,18.0,37,0.00,CLR,CLR,0.00,WeatherDisplay:10.37,2013-04-30 20:48:00,
2013-04-30 15:58:00,59.6,34.6,27.94,West,267,6.0,15.0,39,0.00,CLR,CLR,0.00,WeatherDisplay:10.37,2013-04-30 20:58:00,
2013-04-30 16:08:00,59.7,34.0,27.97,WSW,252,7.0,17.0,38,0.00,CLR,CLR,0.00,WeatherDisplay:10.37,2013-04-30 21:08:00,
2013-04-30 16:18:00,59.9,34.9,27.97,WSW,256,7.0,14.0,39,0.00,CLR,CLR,0.00,WeatherDisplay:10.37,2013-04-30 21:18:00,
2013-04-30 16:28:00,60.1,34.4,27.97,West,260,6.0,17.0,38,0.00,CLR,CLR,0.00,WeatherDisplay:10.37,2013-04-30 21:28:00,
2013-04-30 16:38:00,60.2,33.8,27.97,West,261,7.0,14.0,37,0.00,CLR,CLR,0.00,WeatherDisplay:10.37,2013-04-30 21:38:00,
2013-04-30 16:48:00,60.3,33.2,27.97,West,259,7.0,12.0,36,0.00,CLR,CLR,0.00,WeatherDisplay:10.37,2013-04-30 21:48:00,
2013-04-30 16:58:00,60.0,33.6,27.98,West,262,5.0,13.0,37,0.00,CLR,CLR,0.00,WeatherDisplay:10.37,2013-04-30 21:58:00,
2013-04-30 17:08:00,59.9,33.5,27.98,West,259,3.0,12.0,37,0.00,CLR,CLR,0.00,WeatherDisplay:10.37,2013-04-30 22:08:00,
2013-04-30 17:18:00,60.1,33.0,27.98,WSW,254,5.0,12.0,36,0.00,CLR,CLR,0.00,WeatherDisplay:10.37,2013-04-30 22:18:00,
2013-04-30 17:28:00,59.9,32.9,27.99,WSW,251,6.0,10.0,36,0.00,CLR,CLR,0.00,WeatherDisplay:10.37,2013-04-30 22:28:00,
2013-04-30 17:38:00,59.7,33.4,28.00,WSW,252,7.0,12.0,37,0.00,CLR,CLR,0.00,WeatherDisplay:10.37,2013-04-30 22:38:00,
2013-04-30 17:48:00,59.5,33.2,28.00,WSW,257,3.0,13.0,37,0.00,CLR,CLR,0.00,WeatherDisplay:10.37,2013-04-30 22:48:00,
2013-04-30 17:58:00,59.4,33.1,28.01,West,259,6.0,13.0,37,0.00,CLR,CLR,0.00,WeatherDisplay:10.37,2013-04-30 22:58:00,
2013-04-30 18:08:00,59.2,33.6,28.01,WSW,254,3.0,15.0,38,0.00,CLR,CLR,0.00,WeatherDisplay:10.37,2013-04-30 23:08:00,
2013-04-30 18:18:00,59.0,33.4,28.02,WSW,254,7.0,15.0,38,0.00,CLR,CLR,0.00,WeatherDisplay:10.37,2013-04-30 23:18:00,
2013-04-30 18:29:00,58.9,34.0,28.02,WSW,255,5.0,17.0,39,0.00,CLR,CLR,0.00,WeatherDisplay:10.37,2013-04-30 23:29:00,
2013-04-30 18:39:00,58.7,34.4,28.02,WSW,256,12.0,20.0,40,0.00,CLR,CLR,0.00,WeatherDisplay:10.37,2013-04-30 23:39:00,
2013-04-30 18:49:00,58.2,34.6,28.02,WSW,254,7.0,16.0,41,0.00,CLR,CLR,0.00,WeatherDisplay:10.37,2013-04-30 23:49:00,
2013-04-30 18:58:00,58.1,33.9,28.02,WSW,255,10.0,20.0,40,0.00,CLR,CLR,0.00,WeatherDisplay:10.37,2013-04-30 23:58:00,
2013-04-30 19:09:00,58.1,34.5,28.03,WSW,257,8.0,18.0,41,0.00,CLR,CLR,0.00,WeatherDisplay:10.37,2013-05-01 00:09:00,
2013-04-30 19:19:00,57.5,34.6,28.03,West,263,8.0,15.0,42,0.00,CLR,CLR,0.00,WeatherDisplay:10.37,2013-05-01 00:19:00,
2013-04-30 19:29:00,57.1,34.8,28.03,West,267,10.0,17.0,43,0.00,CLR,CLR,0.00,WeatherDisplay:10.37,2013-05-01 00:29:00,
2013-04-30 19:39:00,56.7,35.0,28.03,WSW,258,5.0,15.0,44,0.00,CLR,CLR,0.00,WeatherDisplay:10.37,2013-05-01 00:39:00,
2013-04-30 19:49:00,56.3,36.8,28.03,WSW,255,6.0,15.0,48,0.00,CLR,CLR,0.00,WeatherDisplay:10.37,2013-05-01 00:49:00,
2013-04-30 19:58:00,55.7,36.3,28.03,WSW,256,9.0,17.0,48,0.00,CLR,CLR,0.00,WeatherDisplay:10.37,2013-05-01 00:58:00,
2013-04-30 20:08:00,55.3,36.5,28.04,WSW,256,6.0,17.0,49,0.00,CLR,CLR,0.00,WeatherDisplay:10.37,2013-05-01 01:08:00,
2013-04-30 20:18:00,54.9,36.1,28.04,WSW,258,15.0,23.0,49,0.00,CLR,CLR,0.00,WeatherDisplay:10.37,2013-05-01 01:18:00,
2013-04-30 20:29:00,54.0,36.7,28.04,WSW,256,13.0,23.0,52,0.00,CLR,CLR,0.00,WeatherDisplay:10.37,2013-05-01 01:29:00,
2013-04-30 20:39:00,53.3,37.5,28.04,WSW,255,14.0,22.0,55,0.00,CLR,CLR,0.00,WeatherDisplay:10.37,2013-05-01 01:39:00,
2013-04-30 20:49:00,52.7,37.9,28.05,WSW,254,9.0,20.0,57,0.00,CLR,CLR,0.00,WeatherDisplay:10.37,2013-05-01 01:49:00,
2013-04-30 20:58:00,52.3,38.0,28.05,WSW,254,8.0,15.0,58,0.00,CLR,CLR,0.00,WeatherDisplay:10.37,2013-05-01 01:58:00,
2013-04-30 21:09:00,52.3,37.5,28.05,WSW,253,8.0,16.0,57,0.00,CLR,CLR,0.00,WeatherDisplay:10.37,2013-05-01 02:09:00,
2013-04-30 21:19:00,52.3,37.0,28.05,WSW,254,9.0,18.0,56,0.00,CLR,CLR,0.00,WeatherDisplay:10.37,2013-05-01 02:19:00,
2013-04-30 21:29:00,52.3,37.1,28.06,WSW,253,13.0,18.0,56,0.00,CLR,CLR,0.00,WeatherDisplay:10.37,2013-05-01 02:29:00,
2013-04-30 21:39:00,52.3,36.6,28.07,WSW,255,10.0,21.0,55,0.00,CLR,CLR,0.00,WeatherDisplay:10.37,2013-05-01 02:39:00,
2013-04-30 21:49:00,52.1,35.9,28.06,WSW,257,10.0,23.0,54,0.00,CLR,CLR,0.00,WeatherDisplay:10.37,2013-05-01 02:49:00,
2013-04-30 21:58:00,51.9,35.8,28.06,WSW,256,10.0,25.0,54,0.00,CLR,CLR,0.00,WeatherDisplay:10.37,2013-05-01 02:58:00,
2013-04-30 22:09:00,51.9,35.8,28.06,West,259,13.0,23.0,54,0.00,CLR,CLR,0.00,WeatherDisplay:10.37,2013-05-01 03:09:00,
2013-04-30 22:19:00,51.7,36.0,28.07,West,268,13.0,23.0,55,0.00,CLR,CLR,0.00,WeatherDisplay:10.37,2013-05-01 03:19:00,
2013-04-30 22:29:00,51.6,35.9,28.08,West,268,9.0,21.0,55,0.00,CLR,CLR,0.00,WeatherDisplay:10.37,2013-05-01 03:29:00,
2013-04-30 22:39:00,51.2,36.5,28.08,West,268,9.0,20.0,57,0.00,CLR,CLR,0.00,WeatherDisplay:10.37,2013-05-01 03:39:00,
2013-04-30 22:49:00,50.9,36.6,28.10,West,265,10.0,20.0,58,0.00,CLR,CLR,0.00,WeatherDisplay:10.37,2013-05-01 03:49:00,
2013-04-30 22:58:00,50.7,36.0,28.11,WSW,257,9.0,21.0,57,0.00,CLR,CLR,0.00,WeatherDisplay:10.37,2013-05-01 03:58:00,
2013-04-30 23:09:00,50.7,35.1,28.10,WSW,257,8.0,22.0,55,0.00,CLR,CLR,0.00,WeatherDisplay:10.37,2013-05-01 04:09:00,
2013-04-30 23:19:00,50.4,34.8,28.11,WSW,258,12.0,16.0,55,0.00,CLR,CLR,0.00,WeatherDisplay:10.37,2013-05-01 04:19:00,
2013-04-30 23:29:00,49.8,35.2,28.12,WSW,257,9.0,17.0,57,0.00,CLR,CLR,0.00,WeatherDisplay:10.37,2013-05-01 04:29:00,
2013-04-30 23:39:00,49.2,35.5,28.12,West,259,7.0,18.0,59,0.00,CLR,CLR,0.00,WeatherDisplay:10.37,2013-05-01 04:39:00,
2013-04-30 23:49:00,48.7,35.9,28.12,West,259,8.0,16.0,61,0.00,CLR,CLR,0.00,WeatherDisplay:10.37,2013-05-01 04:49:00,
2013-04-30 23:58:00,48.7,35.4,28.13,WSW,258,9.0,17.0,60,0.00,CLR,CLR,0.00,WeatherDisplay:10.37,2013-05-01 04:58:00,